BEIDOU-2 G3

Last updated on Fri Jul 10 2026 00:03:02 GMT+0000 (Coordinated Universal Time)

1 36590U 10024A 26189.99636441 -.00000124 00000+0 00000+0 0 9994 2 36590 4.5639 61.4164 0007394 359.5112 304.3310 1.00269600 58981
UTC large
Height (km)
Speed (km/s)
/
Latitude / Longitude
Inclination (degrees)
Orbital Period (minutes)
Azimuth
Elevation
Range (km)
Doppler Factor

Next 0 passes for location: London (51.5072 / 0.1276)

No passes found over London.
BEIDOU-2 G3